Flag for U.S.A. Weather past 2 weeks in Tallahassee, Florida, U.S.A.

Now
76 °F

Clear.


Feels Like: 76 °F
Forecast: 75 / 92 °F
Wind: No wind

Location: Tallahassee Regional Airport

Current Time: Sep 3, 2015 at 8:58:46 AM

Latest Report: Sep 3, 2015 at 7:53 AM


Visibility: 8 mi

Pressure: 29.98 "Hg

Humidity: 91%

Dew point: 73 °F

Location of TallahasseeLocation

Historic Weather in Tallahassee — Graph

°F

Tallahassee temperature yesterday

Maximum temperature yesterday: 94 °F (at 4:53 PM)
Minimum temperature yesterday: 78 °F (at 12:53 AM)
Average temperature yesterday: 83 °F

Past Weeks' High & Low Weather Summary

 TemperatureHumidityPressure
High99 °F (Aug 21, 11:53 AM)100% (Aug 20, 9:53 PM)30.13 "Hg (Aug 20, 9:53 PM)
Low66 °F (Aug 27, 4:53 AM)29% (Aug 26, 6:53 PM)29.85 "Hg (Aug 25, 5:53 PM)
Average82 °F74%29.99 "Hg
* Reported Aug 19 7:53 AM — Sep 3 7:53 AM, Tallahassee, Weather by CustomWeather, © 2015

Note: Actual official high and low records may vary slightly from our data, if they occured in-between our weather recording intervals... More about our weather records

Advertising

Tallahassee weather history for previous 24 hours

 ConditionsComfort  
Time TempWeatherWind HumidityBarometerVisibility
7:53 AM
Thu, Sep 3
76 °FClear.No wind91%29.98 "Hg8 mi
6:53 AM76 °FPassing clouds.No wind91%29.96 "Hg10 mi
5:53 AM77 °FPassing clouds.No wind88%29.95 "Hg10 mi
4:53 AM77 °FClear.No wind88%29.95 "Hg10 mi
3:53 AM77 °FPassing clouds.5 mph88%29.95 "Hg10 mi
2:53 AM78 °FPassing clouds.5 mph87%29.96 "Hg10 mi
1:53 AM79 °FClear.6 mph84%29.97 "Hg10 mi
12:53 AM77 °FClear.3 mph90%29.99 "Hg10 mi
11:53 PM
Wed, Sep 2
80 °FPassing clouds.No wind85%29.99 "Hg10 mi
10:53 PM81 °FPassing clouds.No wind85%29.99 "Hg10 mi
9:53 PM81 °FPassing clouds.No wind82%30.00 "Hg10 mi
8:53 PM82 °FScattered clouds.5 mph79%29.98 "Hg10 mi
7:53 PM84 °FBroken clouds.5 mph77%29.97 "Hg10 mi
6:53 PM87 °FThunderstorms. Broken clouds.6 mph67%29.97 "Hg10 mi
5:53 PM91 °FPartly sunny.14 mph61%29.96 "Hg10 mi
4:53 PM94 °FPartly sunny.7 mph49%29.97 "Hg10 mi
3:53 PM93 °FBroken clouds.6 mph50%29.98 "Hg10 mi
2:53 PM92 °FScattered clouds.8 mph52%30.01 "Hg10 mi
1:53 PM91 °FBroken clouds.6 mph54%30.03 "Hg10 mi
12:53 PM89 °FPartly sunny.No wind59%30.06 "Hg10 mi
11:53 AM87 °FPartly sunny.3 mph63%30.07 "Hg10 mi
10:53 AM85 °FBroken clouds.7 mph70%30.07 "Hg10 mi
9:53 AM80 °FOvercast.5 mph81%30.07 "Hg10 mi
8:53 AM79 °FMore clouds than sun.5 mph88%30.07 "Hg10 mi
Weather by CustomWeather, © 2015

See weather overviewHow to use our weather pages